#timestamp,LO_Frequency,Hit,StdDev 
1508504415.0,286047002.0,N
1508504415.9,286047002.0,N
1508504435.8,286047000.2,N
1508504455.6,286047000.6,N
1508504475.4,286046999.2,N
1508504495.3,286047000.3,N
1508504515.1,286046999.8,N
1508504516.0,286046999.8,N
1508504535.8,286046996.7,N
1508504555.7,286046995.3,N
1508504575.5,286046995.8,N
1508504595.3,286046999.0,N
1508504615.2,286047001.0,N
1508504635.9,286046997.9,N
1508504655.7,286046994.5,N
1508504675.6,286046999.5,N
1508504695.4,286046995.3,N
1508504715.2,286046995.4,N
1508504735.1,286046996.1,N
1508504736.0,286046996.1,N
1508504755.8,286046998.8,N
1508504775.6,286046996.1,N
1508504795.5,286046996.9,N
1508504815.3,286046998.4,N
1508504835.1,286046996.3,N
1508504855.9,286046993.5,Y
1508504875.7,286046993.3,P
1508504895.5,286046995.9,N
1508504915.4,286046996.9,N
1508504935.2,286046999.2,N
1508504955.0,286046997.9,N
1508504955.9,286046997.9,N
1508504975.7,286046998.5,N
1508504995.6,286046998.4,N
1508505015.4,286046997.4,N
1508505035.2,286046995.3,N
1508505055.1,286046997.0,N
1508505056.0,286046997.0,N
1508505075.8,286046996.5,N
1508505095.6,286046999.5,N
1508505115.5,286047003.6,N
1508505135.3,286047001.6,N
1508505155.1,286047005.8,N
1508505175.9,286047003.8,N
1508505195.7,286047002.0,N
1508505215.5,286047005.4,N
1508505235.4,286047004.3,N
1508505255.2,286047003.5,N
1508505275.0,286047000.2,N
1508505275.9,286047000.2,N
1508505295.8,286047002.8,N
1508505315.6,286046996.7,N
1508505335.4,286046996.7,N
1508505355.3,286046998.9,N
1508505375.1,286047000.8,N
1508505376.0,286047000.8,N
1508505395.8,286046998.9,N
1508505415.7,286047000.1,N
1508505435.5,286046998.2,N
1508505455.3,286046998.7,N
1508505475.2,286046998.5,N
1508505495.9,286046996.7,N
1508505515.7,286047002.4,N
1508505535.5,286047003.1,N
1508505555.4,286047005.6,N
1508505575.2,286047003.0,N
1508505595.0,286047008.2,N
1508505595.9,286047008.2,N
1508505615.8,286047006.2,N
1508505635.6,286047003.1,N
1508505655.5,286047010.3,Y
1508505675.3,286047002.9,P
1508505695.1,286047003.2,P
1508505715.9,286047004.6,P
1508505735.7,286047004.0,Y
1508505755.5,286046998.8,P
1508505775.4,286046995.2,N
1508505795.2,286046993.6,N
1508505815.0,286046995.5,N
1508505815.9,286046995.5,N
1508505835.8,286046996.4,N
1508505855.6,286046994.2,N
1508505875.4,286046997.5,N
1508505895.2,286046993.7,N
1508505915.1,286046993.8,N
1508505916.0,286046993.8,N
1508505935.8,286046999.5,N
1508505955.7,286046999.2,N
1508505975.5,286046998.0,N
1508505995.3,286046996.2,N
1508506015.1,286046996.2,N
1508506035.9,286046994.9,N
1508506055.7,286046999.6,N
1508506075.5,286047000.9,N
1508506095.4,286046999.3,N
1508506115.2,286046996.8,N
1508506135.0,286046997.6,N
1508506135.9,286046997.6,N
1508506155.8,286046993.9,N
1508506175.6,286046996.1,N
1508506195.4,286047000.7,N
1508506215.3,286046999.8,N
1508506235.1,286046999.8,N
1508506255.8,286047002.1,N
1508506275.7,286047000.7,N
1508506295.5,286047003.9,N
1508506315.3,286047001.8,N
1508506335.2,286047001.3,N
1508506355.9,286047000.5,N
1508506375.7,286047001.9,N
1508506395.6,286047001.0,N
1508506415.4,286046996.9,N
1508506435.2,286046999.9,N
1508506455.1,286047001.9,N
1508506456.0,286047001.9,N
1508506475.8,286047000.8,N
1508506495.6,286047000.1,N
1508506515.5,286047002.1,N
1508506535.3,286046997.2,N
1508506555.1,286046998.7,N
1508506575.9,286047002.6,N
1508506595.7,286047002.1,N
1508506615.5,286047001.5,N
1508506635.4,286047000.8,N
1508506655.2,286047002.1,N
1508506675.0,286046996.7,N
1508506675.9,286046996.7,N
1508506695.8,286046995.6,N
1508506715.6,286046995.0,N
1508506735.4,286046993.4,N
1508506755.3,286046996.2,N
1508506775.1,286046997.4,N
1508506776.0,286046997.4,N
1508506795.8,286046995.2,N
1508506815.7,286046992.2,N
1508506835.5,286046994.2,N
1508506855.3,286046999.2,N
1508506875.2,286047000.6,N
1508506895.9,286046998.9,N
1508506915.7,286047000.0,N
1508506935.6,286047000.4,N
1508506955.4,286047002.8,N
1508506975.2,286047000.3,N
1508506995.0,286047005.9,N
1508506996.0,286047005.9,N
1508507015.8,286046998.2,N
1508507035.6,286047001.0,N
1508507055.4,286047001.5,N
1508507075.3,286047002.6,N
1508507095.1,286047005.8,N
1508507115.8,286047005.1,N
1508507135.7,286047002.2,N
1508507155.5,286047000.1,N
1508507175.3,286047001.0,N
1508507195.2,286046999.0,N
1508507215.0,286046998.0,N
1508507215.9,286046998.0,N
1508507235.7,286046997.9,N
1508507255.6,286046998.0,N
1508507275.4,286046995.3,N
1508507295.2,286046993.4,N
1508507315.1,286046993.5,N
1508507316.0,286046993.5,N
1508507335.8,286046994.5,N
1508507355.6,286046993.3,N
1508507375.5,286046996.7,N
1508507395.3,286046997.5,N
1508507415.1,286046998.0,N
1508507435.9,286047001.1,N
1508507455.7,286047001.2,N
1508507475.5,286047000.9,N
1508507495.4,286047000.4,N
1508507515.2,286046998.6,N
1508507535.0,286046995.8,N
1508507535.9,286046995.8,N
1508507555.8,286046997.5,N
1508507575.6,286046993.4,N
1508507595.4,286046994.4,N
1508507615.3,286046994.6,N
1508507635.1,286046991.9,N
1508507636.0,286046991.9,N
1508507655.8,286046994.2,N
1508507675.7,286046994.5,N
1508507695.5,286046992.1,N
1508507715.3,286046995.1,N
1508507735.2,286046994.2,N
1508507755.9,286046994.3,N
1508507775.7,286046996.5,N
1508507795.6,286046997.7,N
1508507815.4,286046996.8,N
1508507835.2,286046999.1,N
1508507855.1,286047000.5,N
1508507856.0,286047000.5,N
1508507875.8,286047002.7,N
1508507895.6,286047001.1,N
1508507915.5,286046998.4,N
1508507935.3,286047002.6,N
1508507955.1,286046999.7,N
1508507975.8,286046998.5,N
1508507995.7,286046998.8,N
